Regional Weather Roundup
Issued by NWS State College, PA

Home | Current Version | Previous Version | Graphics & Text | Print | Product List | Glossary Off
Versions: 1 2 3 4 5 6 7 8 9 10 11 12 13 14 15 16 17 18 19 20 21 22 23 24 25 26 27 28 29 30 31 32 33 34 35 36 37 38 39 40 41 42 43 44 45 46 47 48 49 50

000
ASUS41 KCTP 231910
RWRCTP

REGIONAL WEATHER ROUNDUP
NATIONAL WEATHER SERVICE STATE COLLEGE PA
300 PM EDT WED APR 23 2014

Note: "fair" indicates few or no clouds below 12,000 feet with no
significant weather and/or obstructions to visibility.

* = STATION THAT DOES NOT REPORT PRECIPITATION /E.G. RAIN...SNOW...ETC/
    THUNDER OR FOG.

PAZ002>004-007>009-013>016-020>023-029>032-232000-
WESTERN PENNSYLVANIA

CITY           SKY/WX    TMP DP  RH WIND       PRES   REMARKS
ERIE           MOSUNNY   44  30  57 W16G29    30.02R
MEADVILLE      NOT AVBL
FRANKLIN*      CLOUDY    43  28  56 NW10G22   30.00S
NEW CASTLE     PTSUNNY   44  31  60 NW9G21    30.04S
BEAVER COUNTY  CLOUDY    43  32  65 NW13G20   30.02S
BUTLER*        CLOUDY    45  30  57 W14G21    30.02S
PITTSBURGH INT CLOUDY    45  32  60 NW15      30.01S
PITTSBURGH     CLOUDY    47  31  53 NW14G25   29.98F
INDIANA*       CLOUDY    39  34  81 W10G20    29.98S
LATROBE        CLOUDY    43  34  70 NW14G25   30.00S
WASHINGTON CO* CLOUDY    46  32  57 NW10G21   30.03S
$$

PAZ004>006-010>012-017>019-024>028-033>037-041-042-045-046-049>053-232000-
CENTRAL PENNSYLVANIA

CITY           SKY/WX    TMP DP  RH WIND       PRES   REMARKS
BRADFORD       CLOUDY    35  30  82 W16G23    29.91R
DUBOIS         CLOUDY    38  33  82 W14G24    29.92R
CLEARFIELD     CLOUDY    38  32  79 W16G25    29.92S
JOHNSTOWN      CLOUDY    37  31  78 W22G31    29.91R
ALTOONA        CLOUDY    42  34  73 NW15G29   29.91R
STATE COLLEGE  CLOUDY    46  34  61 W18G30    29.88R
WILLIAMSPORT   CLOUDY    51  32  48 W20G26    29.81R
SELINSGROVE    PTSUNNY   55  34  45 NW16G23   29.81R
FT INDIANTOWN  PTSUNNY   53  34  47 W12G24    29.79R
CAPITAL CITY   PTSUNNY   56  35  45 W18G29    29.81R
HARRISBURG     PTSUNNY   57  36  45 NW20G30   29.80R
YORK           PTSUNNY   55  36  48 NW18G25   29.81S
$$

PAZ038>040-043-044-047-048-054-055-060>062-067>071-232000-
EASTERN PENNSYLVANIA

CITY           SKY/WX    TMP DP  RH WIND       PRES   REMARKS
SCRANTON       CLOUDY    46  34  61 NW22G33   29.76R
MOUNT POCONO   CLOUDY    44  34  67 NW18G30   29.69R
ALLENTOWN      CLOUDY    56  35  45 NW18G26   29.72R
QUAKERTOWN*    PTSUNNY   55  36  47 NW16G25   29.72R
READING        CLOUDY    55  35  47 NW20G30   29.75R
LANCASTER      CLOUDY    57  38  48 NW22G30   29.77R
COATESVILLE    NOT AVBL
POTTSTOWN      CLOUDY    55  36  48 NW15G26   29.73S
BLUE BELL      MOSUNNY   59  34  38 NW13G24   29.70S
DOYLESTOWN     PTSUNNY   57  36  45 NW18G36   29.69R
WILLOW GROVE   NOT AVBL
NORTH PHILA    PTSUNNY   60  34  37 NW16G30   29.70S
PHILADELPHIA   MOSUNNY   61  32  33 NW30G37   29.71S
$$



USA.gov is the U.S. government's official web portal to all federal, state and local government web resources and services.